Location: Cahoon Acres
(40.8736°N, 111.8994°W)
Time: 05:46:05
(UTC+00:00)

Explorer 7 - Visible Passes

Search period start: 06 June 2020 00:00
Search period end: 16 June 2020 00:00
Orbit: 485 x 679 km, 50.3° (Epoch: 05 June)

Date Brightness Start Highest point End Pass type
(mag) Time Alt. Az. Time Alt. Az. Time Alt. Az.
06 Jun 7.2 03:30:43 10° SW 03:35:36 74° SE 03:40:25 10° ENE visible
06 Jun 8.8 05:12:03 10° W 05:16:33 35° NNW 05:20:53 10° NE visible
06 Jun 9.3 06:54:09 10° NW 06:58:06 25° N 07:01:55 10° ENE visible
06 Jun 8.2 08:35:10 10° NW 08:39:34 42° NNE 08:43:43 10° E visible
06 Jun 7.1 10:15:56 10° WNW 10:20:12 45° SW 10:24:11 10° SSE visible
07 Jun 7.5 03:35:30 10° WSW 03:40:25 77° NNW 03:45:15 10° NE visible
07 Jun 9.1 05:17:17 10° WNW 05:21:34 30° NNW 05:25:44 10° NE visible
07 Jun 9.2 06:59:09 10° NW 07:03:12 27° N 07:07:04 10° ENE visible
07 Jun 7.6 08:39:57 10° NW 08:44:30 57° NNE 08:48:46 10° ESE visible
07 Jun 7.7 10:21:02 10° WNW 10:24:50 28° SW 10:28:26 10° SSE visible
08 Jun 8.1 03:40:28 10° WSW 03:45:17 55° NNW 03:50:02 10° NE visible
08 Jun 9.3 05:22:30 10° WNW 05:26:39 27° N 05:30:39 10° NE visible
08 Jun 8.9 07:04:05 10° NW 07:08:16 30° NNE 07:12:16 10° ENE visible
08 Jun 6.9 08:44:44 10° NW 08:49:23 84° NE 08:50:32 49° ESE visible
08 Jun 9.2 10:26:29 10° W 10:26:37 10° W 10:26:37 10° W visible
09 Jun 8.6 03:45:34 10° W 03:50:14 42° NNW 03:54:48 10° NE visible
09 Jun 9.3 05:27:40 10° WNW 05:31:44 26° N 05:35:40 10° NE visible
09 Jun 8.5 07:08:55 10° NW 07:13:19 36° NNE 07:16:34 15° E visible
09 Jun 7.7 08:49:35 10° WNW 08:52:46 41° WNW 08:52:46 41° WNW visible
10 Jun 9.0 03:50:45 10° W 03:55:13 34° NNW 03:59:37 10° NE visible
10 Jun 9.3 05:32:45 10° NW 05:36:50 26° N 05:40:46 10° ENE visible
10 Jun 8.0 07:13:42 10° NW 07:18:17 47° NNE 07:19:44 34° ENE visible
10 Jun 8.9 08:54:32 10° WNW 08:55:58 19° WNW 08:55:58 19° WNW visible
11 Jun 9.2 03:55:58 10° WNW 04:00:16 29° NNW 04:04:29 10° NE visible
11 Jun 9.1 05:37:44 10° NW 05:41:56 28° N 05:45:57 10° ENE visible
11 Jun 7.3 07:18:29 10° NW 07:23:12 65° NNE 07:23:18 65° NE visible
12 Jun 9.3 04:01:11 10° WNW 04:05:21 27° N 04:09:26 10° NE visible
12 Jun 8.8 05:42:38 10° NW 05:46:59 32° NNE 05:50:49 12° ENE visible
12 Jun 7.5 07:23:17 10° WNW 07:27:05 56° WNW 07:27:05 56° WNW visible
13 Jun 9.3 04:06:19 10° WNW 04:10:27 26° N 04:14:29 10° ENE visible
13 Jun 8.3 05:47:27 10° NW 05:52:00 40° NNE 05:54:44 20° E visible
13 Jun 8.2 07:28:09 10° WNW 07:30:59 34° WNW 07:30:59 34° WNW visible
14 Jun 9.1 04:11:22 10° NW 04:15:32 27° N 04:19:37 10° ENE visible
14 Jun 7.8 05:52:14 10° NW 05:56:57 52° NNE 05:58:43 33° E visible
14 Jun 8.9 07:33:09 10° WNW 07:34:59 21° W 07:34:59 21° W visible
15 Jun 8.9 04:16:19 10° NW 04:20:37 30° N 04:24:49 10° ENE visible
15 Jun 7.2 05:57:01 10° NW 06:01:51 73° NNE 06:02:48 54° E visible
15 Jun 9.5 07:38:23 10° W 07:39:04 13° W 07:39:04 13° W visible
